DECAYED
Showing default

NUSAT-28 (ALICE LEE), 52747 (Decayed)

Orbit data source: Space-Track

NUSAT-28 (ALICE LEE), 52747 was a payload satellite owned by URUGUS S.A. (AR) in LEO that was launched on Wed, 25 May 2022 UTC via an FALCON 9 launch vehicle from the Air Force Eastern Test Range (AFETR). Payload-class satellites include a variety of spacecraft equipped with specific instruments for various scientific and technological missions. These include communications satellites like Starlink; space stations such as the ISS; scientific satellites like the Hubble; Earth observation satellites from companies like Planet Labs, Umbra, and HawkEye 360; GPS; miniature CubeSats for education and research; and military/defense satellites.

Not visible in the next 10 days
Identifier
52747, 2022-057R
Orbit
Decayed
Country
Flag of ARAR / ARGN
Related business
Manufacturer
URUGUS S.A.
Mission
Decayed Commercial Imaging
Bus & Motor
NEWSAT V, Unknown motor
Mass
41.5 kg wet, 38.5 kg dry
Launch date (UTC)
2022-05-25 (4 years ago)
Launch vehicle
FALCON 9
Launch site
Air Force Eastern Test Range (AFETR)
Object type
Payload
Rocket body
Debris
Shape & HBR
Box, 1.0 m
Radar Cross Section
0.542 m², Medium (>0.1 m² and < 1m²)

Expand to show TLE details & history
Last TLE update: 2 weeks ago

TLE from 2 weeks ago
0 NUSAT-28 (ALICE LEE)
1 52747U 22057R   26078.05972793  .09026957  26219-5  27979-3 0  9996
2 52747  97.4903 229.3695 0012309 276.4437  83.5463 16.43911747213562
Epoch: 2026-03-19T01:26Z
TLE epoch observation values (Epoch: 2026-03-19T01:26:00.493Z)
Latitude
0.00005°
Longitude
31.25286°
Altitude
157.777 km
Speed
7.812 km/s
True Right ascension
15h 17m 28s
True Declination
0° 00' 00"
Sunlit
Object was in full shadow at epoch
Visualization orbit readout
Latitude
Unknown
Longitude
Unknown
Altitude
Unknown
Speed
Unknown
Apparent Right ascension
Unknown
Apparent Declination
Unknown
Sunlit
N/A
Visualization observer readout
Local Sidereal Time
17:04:15
Azimuth
Unknown
Elevation
Unknown
Doppler factor
Unknown
Orbital elements
Apogee altitude
160.262 km
Perigee altitude
144.186 km
Semi-major axis
6,530.361 km
Eccentricity
0.00123
Inclination
97.4903°
RAAN
229.3695°
Arg. of periapsis
276.4437°
True anomaly
83.68648°
Mean anomaly
83.5463°
Eccentric anomaly
83.61639°
Mean motion
4.1128 °/min
Orbital period
87.53 mins
BSTAR
0.00027979
Loading maneuver chart data...
Computing Atmospheric mass density...
Loading historical data...
Loading historical data...
Loading historical data...
Loading historical data...
Loading historical data...
Loading historical data...
Loading historical data...

Documentation

Showing up to 5 results
|